Torna al catalogo

TFSTAR

AttivoScienzaPO
NORAD 43834·PAYLOAD·🇨🇳 China
Questo nome del satellite non è ancora stato confermato da fonti ufficiali.

Lanciato Dec 7, 2018 da Jiuquan Satellite Launch Center

Loading…

Prossimi Passaggi (prossime 24 ore)

TLE

AggiornatoSource: Space-Track

Epoca: Sep 14, 2026, 05:34 UTC

1 43834U 18102D   26257.23205286  .00181132  00000-0  75484-3 0  9991
2 43834  97.3356 351.4409 0001122 187.2874 172.8381 15.85219582431268

Traccia TFSTAR in tempo reale con AllMySat

Download on the App Store